Time,TemperatureF,DewpointF,PressureIn,WindDirection,WindDirectionDegrees,WindSpeedMPH,WindSpeedGustMPH,Humidity,HourlyPrecipIn,Conditions,Clouds,dailyrainin,SoftwareType,DateUTC
2013-03-23 00:05:00,30.3,24.0,29.33,West,260,2.0,7.0,77,0.00,,,0.00,weatherlink.com 1.10,2013-03-23 04:05:00,
2013-03-23 00:20:00,30.3,24.0,29.33,NNW,330,1.0,7.0,77,0.00,,,0.00,weatherlink.com 1.10,2013-03-23 04:20:00,
2013-03-23 00:35:00,30.2,24.0,29.33,NW,326,4.0,7.0,76,0.00,,,0.00,weatherlink.com 1.10,2013-03-23 04:35:00,
2013-03-23 00:50:00,29.9,23.0,29.33,NW,316,2.0,7.0,76,0.00,,,0.00,weatherlink.com 1.10,2013-03-23 04:50:00,
2013-03-23 01:05:00,30.0,23.0,29.33,WNW,285,4.0,6.0,76,0.00,,,0.00,weatherlink.com 1.10,2013-03-23 05:05:00,
2013-03-23 01:20:00,29.8,23.0,29.33,SSW,212,2.0,7.0,77,0.00,,,0.00,weatherlink.com 1.10,2013-03-23 05:20:00,
2013-03-23 01:35:00,29.6,23.0,29.33,NW,314,1.0,7.0,76,0.00,,,0.00,weatherlink.com 1.10,2013-03-23 05:35:00,
2013-03-23 01:50:00,29.5,23.0,29.33,North,6,5.0,7.0,77,0.00,,,0.00,weatherlink.com 1.10,2013-03-23 05:50:00,
2013-03-23 02:05:00,29.2,22.0,29.34,NNE,21,2.0,9.0,75,0.00,,,0.00,weatherlink.com 1.10,2013-03-23 06:05:00,
2013-03-23 02:21:00,29.1,22.0,29.34,West,262,1.0,5.0,74,0.00,,,0.00,weatherlink.com 1.10,2013-03-23 06:21:00,
2013-03-23 02:35:00,29.2,22.0,29.34,ENE,57,1.0,4.0,75,0.00,,,0.00,weatherlink.com 1.10,2013-03-23 06:35:00,
2013-03-23 02:51:00,29.1,22.0,29.34,SW,226,1.0,5.0,74,0.00,,,0.00,weatherlink.com 1.10,2013-03-23 06:51:00,
2013-03-23 03:06:00,29.1,22.0,29.34,NNW,345,3.0,7.0,75,0.00,,,0.00,weatherlink.com 1.10,2013-03-23 07:06:00,
2013-03-23 03:21:00,29.1,22.0,29.34,WNW,290,2.0,5.0,75,0.00,,,0.00,weatherlink.com 1.10,2013-03-23 07:21:00,
2013-03-23 03:36:00,29.1,22.0,29.33,WNW,297,4.0,6.0,76,0.00,,,0.00,weatherlink.com 1.10,2013-03-23 07:36:00,
2013-03-23 03:51:00,29.0,22.0,29.34,WNW,299,1.0,5.0,76,0.00,,,0.00,weatherlink.com 1.10,2013-03-23 07:51:00,
2013-03-23 04:06:00,29.0,22.0,29.34,NNE,32,1.0,6.0,76,0.00,,,0.00,weatherlink.com 1.10,2013-03-23 08:06:00,
2013-03-23 04:21:00,28.8,22.0,29.34,NNE,12,3.0,6.0,76,0.00,,,0.00,weatherlink.com 1.10,2013-03-23 08:21:00,
2013-03-23 04:51:00,28.7,22.0,29.33,North,8,2.0,6.0,76,0.00,,,0.00,weatherlink.com 1.10,2013-03-23 08:51:00,
2013-03-23 05:06:00,28.8,22.0,29.33,NNE,25,0.0,4.0,76,0.00,,,0.00,weatherlink.com 1.10,2013-03-23 09:06:00,
2013-03-23 05:21:00,28.8,22.0,29.33,SW,228,1.0,4.0,76,0.00,,,0.00,weatherlink.com 1.10,2013-03-23 09:21:00,
2013-03-23 05:36:00,28.8,22.0,29.33,SSW,212,1.0,4.0,76,0.00,,,0.00,weatherlink.com 1.10,2013-03-23 09:36:00,
2013-03-23 05:51:00,28.7,22.0,29.34,WSW,253,2.0,6.0,76,0.00,,,0.00,weatherlink.com 1.10,2013-03-23 09:51:00,
2013-03-23 06:21:00,28.6,22.0,29.34,WNW,285,3.0,3.0,76,0.00,,,0.00,weatherlink.com 1.10,2013-03-23 10:21:00,
2013-03-23 06:36:00,28.6,22.0,29.34,NW,314,0.0,4.0,76,0.00,,,0.00,weatherlink.com 1.10,2013-03-23 10:36:00,
2013-03-23 06:51:00,28.6,22.0,29.34,WSW,240,1.0,4.0,76,0.00,,,0.00,weatherlink.com 1.10,2013-03-23 10:51:00,
2013-03-23 07:06:00,28.6,22.0,29.35,SW,214,1.0,4.0,77,0.00,,,0.00,weatherlink.com 1.10,2013-03-23 11:06:00,
2013-03-23 07:21:00,28.6,22.0,29.35,North,8,1.0,3.0,77,0.00,,,0.00,weatherlink.com 1.10,2013-03-23 11:21:00,
2013-03-23 07:36:00,28.7,22.0,29.36,West,263,0.0,3.0,77,0.00,,,0.00,weatherlink.com 1.10,2013-03-23 11:36:00,
2013-03-23 08:21:00,29.0,23.0,29.37,NE,34,1.0,3.0,77,0.00,,,0.00,weatherlink.com 1.10,2013-03-23 12:21:00,
2013-03-23 08:36:00,28.9,22.0,29.37,NNE,13,3.0,5.0,76,0.00,,,0.00,weatherlink.com 1.10,2013-03-23 12:36:00,
2013-03-23 08:51:00,29.1,22.0,29.38,West,263,1.0,5.0,76,0.00,,,0.00,weatherlink.com 1.10,2013-03-23 12:51:00,
2013-03-23 09:06:00,28.9,22.0,29.38,West,262,1.0,7.0,76,0.00,,,0.00,weatherlink.com 1.10,2013-03-23 13:06:00,
2013-03-23 09:21:00,29.3,23.0,29.39,NNE,12,5.0,5.0,76,0.00,,,0.00,weatherlink.com 1.10,2013-03-23 13:21:00,
2013-03-23 09:36:00,29.3,23.0,29.39,NNW,330,4.0,5.0,76,0.00,,,0.00,weatherlink.com 1.10,2013-03-23 13:36:00,
2013-03-23 09:51:00,29.3,22.0,29.39,NNE,15,1.0,5.0,75,0.00,,,0.00,weatherlink.com 1.10,2013-03-23 13:51:00,
2013-03-23 10:06:00,29.4,22.0,29.39,NNE,27,1.0,5.0,75,0.00,,,0.00,weatherlink.com 1.10,2013-03-23 14:06:00,
2013-03-23 10:21:00,29.9,23.0,29.39,NNE,30,1.0,4.0,74,0.00,,,0.00,weatherlink.com 1.10,2013-03-23 14:21:00,
2013-03-23 10:36:00,30.1,23.0,29.40,WSW,250,1.0,3.0,74,0.00,,,0.00,weatherlink.com 1.10,2013-03-23 14:36:00,
2013-03-23 11:06:00,31.4,23.0,29.40,NNW,342,4.0,4.0,71,0.00,,,0.00,weatherlink.com 1.10,2013-03-23 15:06:00,
2013-03-23 11:36:00,31.5,23.0,29.40,NE,37,1.0,5.0,71,0.00,,,0.00,weatherlink.com 1.10,2013-03-23 15:36:00,
2013-03-23 11:51:00,31.9,23.0,29.40,SW,235,5.0,5.0,71,0.00,,,0.00,weatherlink.com 1.10,2013-03-23 15:51:00,
2013-03-23 12:21:00,32.8,24.0,29.41,SW,217,1.0,5.0,70,0.00,,,0.00,weatherlink.com 1.10,2013-03-23 16:21:00,
2013-03-23 12:36:00,32.9,24.0,29.41,WSW,243,3.0,6.0,69,0.00,,,0.00,weatherlink.com 1.10,2013-03-23 16:36:00,
2013-03-23 12:51:00,32.3,24.0,29.41,SSW,207,2.0,4.0,70,0.00,,,0.00,weatherlink.com 1.10,2013-03-23 16:51:00,
2013-03-23 13:06:00,33.1,24.0,29.42,SW,229,4.0,6.0,70,0.00,,,0.00,weatherlink.com 1.10,2013-03-23 17:06:00,
2013-03-23 13:22:00,33.5,24.0,29.41,NNE,28,2.0,6.0,67,0.00,,,0.00,weatherlink.com 1.10,2013-03-23 17:22:00,
2013-03-23 13:37:00,34.3,24.0,29.41,West,260,4.0,5.0,67,0.00,,,0.00,weatherlink.com 1.10,2013-03-23 17:37:00,
2013-03-23 13:52:00,34.6,24.0,29.41,NNE,25,3.0,5.0,66,0.00,,,0.00,weatherlink.com 1.10,2013-03-23 17:52:00,
2013-03-23 14:07:00,34.9,24.0,29.41,West,273,3.0,5.0,65,0.00,,,0.00,weatherlink.com 1.10,2013-03-23 18:07:00,
2013-03-23 14:22:00,34.8,24.0,29.41,NNW,333,1.0,6.0,65,0.00,,,0.00,weatherlink.com 1.10,2013-03-23 18:22:00,
2013-03-23 14:37:00,34.7,24.0,29.40,WSW,240,4.0,8.0,66,0.00,,,0.00,weatherlink.com 1.10,2013-03-23 18:37:00,
2013-03-23 14:52:00,34.9,24.0,29.40,SW,225,2.0,5.0,65,0.00,,,0.00,weatherlink.com 1.10,2013-03-23 18:52:00,
2013-03-23 15:07:00,35.5,24.0,29.39,West,281,2.0,7.0,64,0.00,,,0.00,weatherlink.com 1.10,2013-03-23 19:07:00,
2013-03-23 15:22:00,36.5,24.0,29.39,SW,217,1.0,5.0,62,0.00,,,0.00,weatherlink.com 1.10,2013-03-23 19:22:00,
2013-03-23 15:37:00,37.0,25.0,29.38,NNW,336,3.0,5.0,61,0.00,,,0.00,weatherlink.com 1.10,2013-03-23 19:37:00,
2013-03-23 15:52:00,38.8,25.0,29.38,SSW,211,0.0,5.0,59,0.00,,,0.00,weatherlink.com 1.10,2013-03-23 19:52:00,
2013-03-23 16:07:00,38.4,25.0,29.37,West,273,4.0,5.0,58,0.00,,,0.00,weatherlink.com 1.10,2013-03-23 20:07:00,
2013-03-23 16:22:00,36.4,24.0,29.38,West,276,0.0,5.0,61,0.00,,,0.00,weatherlink.com 1.10,2013-03-23 20:22:00,
2013-03-23 16:37:00,35.6,24.0,29.38,South,188,1.0,5.0,63,0.00,,,0.00,weatherlink.com 1.10,2013-03-23 20:37:00,
2013-03-23 16:52:00,35.2,24.0,29.37,SE,134,1.0,3.0,65,0.00,,,0.00,weatherlink.com 1.10,2013-03-23 20:52:00,
2013-03-23 17:07:00,35.4,24.0,29.37,NE,48,1.0,4.0,64,0.00,,,0.00,weatherlink.com 1.10,2013-03-23 21:07:00,
2013-03-23 17:22:00,36.0,24.0,29.37,WSW,245,2.0,5.0,62,0.00,,,0.00,weatherlink.com 1.10,2013-03-23 21:22:00,
2013-03-23 17:37:00,35.2,24.0,29.38,NNE,25,0.0,5.0,63,0.00,,,0.00,weatherlink.com 1.10,2013-03-23 21:37:00,
2013-03-23 17:52:00,35.5,24.0,29.39,NE,40,1.0,2.0,63,0.00,,,0.00,weatherlink.com 1.10,2013-03-23 21:52:00,
2013-03-23 18:07:00,36.0,24.0,29.39,WSW,248,0.0,3.0,62,0.00,,,0.00,weatherlink.com 1.10,2013-03-23 22:07:00,
2013-03-23 18:22:00,36.5,24.0,29.38,WSW,252,2.0,4.0,61,0.00,,,0.00,weatherlink.com 1.10,2013-03-23 22:22:00,
2013-03-23 18:40:00,37.2,24.0,29.38,West,267,1.0,3.0,60,0.00,,,0.00,weatherlink.com 1.10,2013-03-23 22:40:00,
2013-03-23 18:52:00,39.0,24.0,29.37,NNE,26,1.0,2.0,56,0.00,,,0.00,weatherlink.com 1.10,2013-03-23 22:52:00,
2013-03-23 19:07:00,37.1,23.0,29.37,SSW,196,2.0,2.0,58,0.00,,,0.00,weatherlink.com 1.10,2013-03-23 23:07:00,
2013-03-23 19:22:00,36.2,23.0,29.36,SSW,193,1.0,2.0,60,0.00,,,0.00,weatherlink.com 1.10,2013-03-23 23:22:00,
2013-03-23 19:37:00,34.2,25.0,29.37,South,173,1.0,4.0,69,0.00,,,0.00,weatherlink.com 1.10,2013-03-23 23:37:00,
2013-03-23 19:52:00,33.2,25.0,29.37,SSE,156,2.0,3.0,72,0.00,,,0.00,weatherlink.com 1.10,2013-03-23 23:52:00,
2013-03-23 20:07:00,32.8,26.0,29.38,SSE,160,2.0,4.0,75,0.00,,,0.00,weatherlink.com 1.10,2013-03-24 00:07:00,
2013-03-23 20:22:00,32.8,26.0,29.38,SSW,203,3.0,4.0,76,0.00,,,0.00,weatherlink.com 1.10,2013-03-24 00:22:00,
2013-03-23 20:37:00,32.7,26.0,29.38,South,185,2.0,3.0,76,0.00,,,0.00,weatherlink.com 1.10,2013-03-24 00:37:00,
2013-03-23 20:52:00,32.8,26.0,29.38,SW,217,2.0,6.0,75,0.00,,,0.00,weatherlink.com 1.10,2013-03-24 00:52:00,
2013-03-23 21:07:00,32.6,26.0,29.38,SSW,207,1.0,3.0,76,0.00,,,0.00,weatherlink.com 1.10,2013-03-24 01:07:00,
2013-03-23 21:22:00,32.5,26.0,29.39,SSE,152,1.0,3.0,76,0.00,,,0.00,weatherlink.com 1.10,2013-03-24 01:22:00,
2013-03-23 21:37:00,32.4,26.0,29.39,SSW,207,1.0,4.0,76,0.00,,,0.00,weatherlink.com 1.10,2013-03-24 01:37:00,
2013-03-23 21:52:00,31.7,25.0,29.39,SW,214,1.0,3.0,76,0.00,,,0.00,weatherlink.com 1.10,2013-03-24 01:52:00,
2013-03-23 22:07:00,30.7,25.0,29.38,SW,220,0.0,0.0,78,0.00,,,0.00,weatherlink.com 1.10,2013-03-24 02:07:00,
2013-03-23 22:22:00,29.2,24.0,29.38,SW,219,0.0,1.0,82,0.00,,,0.00,weatherlink.com 1.10,2013-03-24 02:22:00,
2013-03-23 22:37:00,27.9,24.0,29.37,SW,219,0.0,0.0,84,0.00,,,0.00,weatherlink.com 1.10,2013-03-24 02:37:00,
2013-03-23 22:52:00,27.1,24.0,29.37,SW,220,0.0,0.0,86,0.00,,,0.00,weatherlink.com 1.10,2013-03-24 02:52:00,
2013-03-23 23:07:00,26.4,23.0,29.36,SW,219,1.0,1.0,87,0.00,,,0.00,weatherlink.com 1.10,2013-03-24 03:07:00,
2013-03-23 23:22:00,26.0,23.0,29.36,SW,220,0.0,1.0,88,0.00,,,0.00,weatherlink.com 1.10,2013-03-24 03:22:00,
2013-03-23 23:37:00,25.4,23.0,29.36,SW,219,0.0,0.0,89,0.00,,,0.00,weatherlink.com 1.10,2013-03-24 03:37:00,
2013-03-23 23:52:00,24.8,22.0,29.36,SW,220,0.0,0.0,89,0.00,,,0.00,weatherlink.com 1.10,2013-03-24 03:52:00,